Tracking 31027 objects as of 19-Jul-2025
HD Live streaming from Space Station
objects crossing your sky now

COSMOS 2419 (GLONASS)

Track COSMOS 2419 (GLONASS) now!
COSMOS 2419 (GLONASS) is classified as:


NORAD ID: 28915
Int'l Code: 2005-050A
Perigee: 19,101.3 km
Apogee: 19,171.8 km
Inclination: 65.8 °
Period: 675.7 minutes
Semi major axis: 25507 km
RCS: 3.2413 m2 (large)
Launch date: December 25, 2005
Source: Commonwealth of Independent States (former USSR) (CIS)
Launch site: TYURATAM MISSILE AND SPACE COMPLEX (TTMTR)
Your satellite tracking list
Your tracking list is empty




NASA's NSSDC Master Catalog

Two Line Element Set (TLE):
1 28915U 05050A   25196.72840213 -.00000049  00000-0  00000-0 0  9999
2 28915  65.7540 327.4142 0013831 334.5396  22.8732  2.13108217152193
Source of the keplerian elements: AFSPC